カタログに戻る

ONEWEB-0499

運用中通信PO
NORAD 54117·PAYLOAD·🇬🇧 United Kingdom

打ち上げ Oct 22, 2022 から Satish Dhawan Space Centre

Loading…

次のパス (今後24時間)

TLE

最新Source: CelesTrak SupGP

元期: Sep 14, 2026, 14:53 UTC

1 54117C 22138E   26257.62062500 -.00000812  00000+0 -20305-2 0  2578
2 54117  87.9114 287.1545 0002088  88.4837  21.0236 13.19727610    10

AllMySatでONEWEB-0499をリアルタイム追跡

Download on the App Store